Weather History for KDCA - December, 2009

Change the Weather History Date:

Saturday, December 19, 2009

  Actual Average Record
Temperature  
Mean Temperature 27 °F 39 °F  
Max Temperature 29 °F 46 °F 74 °F (1924)
Min Temperature 25 °F 32 °F 6 °F (1884)
Degree Days  
Heating Degree Days 38 26  
Month to date heating degree days 475 453  
Since 1 July heating degree days 1067 1148  
Cooling Degree Days 0 0  
Month to date cooling degree days 0 0  
Year to date cooling degree days 1433 1549  
Moisture  
Dew Point 23 °F    
Average Humidity 84    
Maximum Humidity 92    
Minimum Humidity 75    
Precipitation  
Precipitation 0.40 in 0.10 in 1.34 in (2009)
Month to date precipitation 3.98 1.97  
Year to date precipitation 44.09 38.66  
Snow  
Snow 15.00 in 0.00 in 15.00 in (2009)
Month to date snowfall 16.6 1.2  
Since 1 July snowfall 16.6 1.7  
Snow Depth 6.00 in    
Sea Level Pressure  
Sea Level Pressure 29.72 in    
Wind  
Wind Speed 17 mph (North)    
Max Wind Speed 28 mph    
Max Gust Speed 32 mph    
Visibility 1 miles    
Events Fog , Snow    
T = Trace of Precipitation, MM = Missing Value Source: NWS Daily Summary

Daily Weather History Graph

Daily Weather History Graph

Search for Another Location

Airport or City:

Trip Planner

Search our weather history database for the weather conditions in past years. The results will help you decide how hot, cold, wet, or windy it might be!

Date:

Astronomy

Dec. 19, 2009 Rise Set
Actual Time 7:22 AM EST 4:48 PM EST
Civil Twilight 6:52 AM EST 5:18 PM EST
Nautical Twilight 6:18 AM EST 5:52 PM EST
Astronomical Twilight 5:46 AM EST 6:24 PM EST
Moon 9:34 AM EST (12/19) 7:51 PM EST (12/19)
Length of Visible Light 10h 26m
Length of Day
9h 26m
Waxing Crescent, 9% of the Moon is Illuminated
Dec 19
Waxing Crescent
Dec 24
First Quarter
Dec 31
Full
Jan 7
Last Quarter
Jan 15
New

Hourly Weather History & Observations

Time (EST) Temp. Windchill Dew Point Humidity Pressure Visibility Wind Dir Wind Speed Gust Speed Precip Events Conditions
12:35 AM 28.4 °F 17.0 °F 24.8 °F 86% 29.92 in 0.8 mi North 15.0 mph - 0.05 in Snow Light Snow
12:45 AM 28.4 °F 17.0 °F 24.8 °F 86% 29.91 in 1.0 mi North 15.0 mph - 0.05 in Snow Light Snow
12:52 AM 28.0 °F 17.5 °F 25.0 °F 88% 29.90 in 0.8 mi NNE 12.7 mph - 0.05 in Snow Light Snow
1:37 AM 28.4 °F 16.2 °F 24.8 °F 86% 29.85 in 0.5 mi NNE 17.3 mph - 0.02 in Fog , Snow Snow
1:52 AM 28.9 °F 16.9 °F 25.0 °F 85% 29.84 in 0.5 mi NNE 17.3 mph - 0.02 in Snow Snow
2:12 AM 28.4 °F 15.4 °F 24.8 °F 86% 29.83 in 0.8 mi NNE 19.6 mph - 0.00 in Snow Light Snow
2:52 AM 28.9 °F 17.3 °F 25.0 °F 85% 29.81 in 1.0 mi NE 16.1 mph - 0.01 in Snow Light Snow
2:59 AM 28.4 °F 15.4 °F 24.8 °F 86% 29.81 in 0.8 mi NE 19.6 mph - 0.00 in Snow Light Snow
3:08 AM 28.4 °F 15.8 °F 24.8 °F 86% 29.80 in 1.2 mi NE 18.4 mph - 0.00 in Snow Light Snow
3:20 AM 28.4 °F 17.0 °F 24.8 °F 86% 29.79 in 1.2 mi NNE 15.0 mph 24.2 mph 0.00 in Snow Light Snow
3:52 AM 28.9 °F 16.9 °F 25.0 °F 85% 29.77 in 1.0 mi NNE 17.3 mph - 0.01 in Snow Light Snow
4:16 AM 28.4 °F 16.6 °F 24.8 °F 86% 29.76 in 0.8 mi NNE 16.1 mph 25.3 mph 0.00 in Snow Light Snow
4:31 AM 28.4 °F 17.0 °F 24.8 °F 86% 29.78 in 1.0 mi North 15.0 mph - 0.00 in Snow Light Snow
4:52 AM 28.0 °F 15.3 °F 25.0 °F 88% 29.77 in 1.0 mi NNE 18.4 mph - 0.01 in Snow Light Snow
5:05 AM 28.4 °F 15.1 °F 24.8 °F 86% 29.76 in 0.8 mi NNE 20.7 mph - 0.00 in Snow Light Snow
5:32 AM 28.4 °F 15.4 °F 24.8 °F 86% 29.74 in 0.8 mi NNE 19.6 mph 25.3 mph 0.00 in Snow Light Snow
5:52 AM 27.0 °F 12.2 °F 24.1 °F 89% 29.71 in 0.5 mi NNE 24.2 mph 29.9 mph 0.00 in Snow Snow
6:13 AM 28.4 °F 14.7 °F 23.0 °F 80% 29.72 in 1.0 mi NNE 21.9 mph 26.5 mph 0.00 in Snow Light Snow
6:27 AM 28.4 °F 15.1 °F 23.0 °F 80% 29.72 in 2.0 mi NNE 20.7 mph 27.6 mph 0.02 in Snow Light Snow
6:46 AM 28.4 °F 13.8 °F 23.0 °F 80% 29.70 in 1.5 mi NNE 25.3 mph 29.9 mph 0.02 in Snow Light Snow
6:52 AM 28.0 °F 14.6 °F 23.0 °F 81% 29.70 in 1.0 mi NNE 20.7 mph 29.9 mph 0.02 in Snow Light Snow
7:07 AM 28.4 °F 14.4 °F 23.0 °F 80% 29.68 in 1.8 mi NNE 23.0 mph 31.1 mph 0.00 in Snow Light Snow
7:17 AM 28.4 °F 14.7 °F 23.0 °F 80% 29.69 in 1.5 mi NNE 21.9 mph 28.8 mph 0.00 in Snow Light Snow
7:37 AM 28.4 °F 15.1 °F 23.0 °F 80% 29.69 in 1.2 mi NNE 20.7 mph 26.5 mph 0.00 in Snow Light Snow
7:52 AM 28.0 °F 14.9 °F 23.0 °F 81% 29.69 in 1.5 mi NNE 19.6 mph 28.8 mph 0.00 in Snow Light Snow
8:10 AM 28.4 °F 16.2 °F 23.0 °F 80% 29.68 in 1.0 mi NNE 17.3 mph 31.1 mph 0.00 in Snow Light Snow
8:19 AM 28.4 °F 14.7 °F 23.0 °F 80% 29.68 in 0.5 mi NNE 21.9 mph 27.6 mph 0.00 in Snow Snow
8:34 AM 28.4 °F 15.8 °F 24.8 °F 86% 29.67 in 0.5 mi NNE 18.4 mph - 0.00 in Fog , Snow Snow
8:52 AM 28.0 °F 16.1 °F 24.1 °F 85% 29.67 in 0.5 mi NNE 16.1 mph - 0.02 in Snow Snow
9:07 AM 26.6 °F 12.7 °F 23.0 °F 86% 29.67 in 0.2 mi NNE 20.7 mph - 0.00 in Snow Heavy Snow
9:40 AM 26.6 °F 15.2 °F 23.0 °F 86% 29.73 in 0.5 mi North 13.8 mph - 0.01 in Snow Snow
9:52 AM 27.0 °F 12.5 °F 23.0 °F 85% 29.70 in 0.2 mi North 23.0 mph 27.6 mph 0.01 in Snow Heavy Snow
10:20 AM 26.6 °F 13.4 °F 23.0 °F 86% 29.69 in 0.2 mi North 18.4 mph 29.9 mph 0.00 in Snow Heavy Snow
10:49 AM 26.6 °F 13.8 °F 23.0 °F 86% 29.70 in 0.2 mi North 17.3 mph 23.0 mph 0.03 in Snow Heavy Snow
10:52 AM 26.1 °F 13.1 °F 23.0 °F 88% 29.70 in 0.2 mi North 17.3 mph 23.0 mph 0.03 in Snow Heavy Snow
11:29 AM 26.6 °F 14.3 °F 21.2 °F 80% 29.69 in 0.2 mi North 16.1 mph - 0.01 in Snow Heavy Snow
11:33 AM 26.6 °F 13.8 °F 23.0 °F 86% 29.67 in 0.1 mi North 17.3 mph - 0.01 in Snow Heavy Snow
11:39 AM 26.6 °F 13.4 °F 23.0 °F 86% 29.67 in 0.1 mi North 18.4 mph - 0.01 in Snow Heavy Snow
11:44 AM 26.6 °F 13.4 °F 23.0 °F 86% 29.67 in 0.1 mi NNW 18.4 mph - 0.01 in Snow Heavy Snow
11:52 AM 26.1 °F 13.6 °F 23.0 °F 88% 29.68 in 0.1 mi NNW 16.1 mph - 0.01 in Snow Heavy Snow
12:52 PM 26.1 °F 13.1 °F 23.0 °F 88% 29.65 in 0.1 mi North 17.3 mph - 0.07 in Snow Heavy Snow
1:17 PM 26.6 °F 13.8 °F 23.0 °F 86% 29.65 in 0.2 mi NNW 17.3 mph - 0.02 in Snow Heavy Snow
1:26 PM 26.6 °F 14.3 °F 21.2 °F 80% 29.65 in 0.2 mi North 16.1 mph - 0.04 in Snow Heavy Snow
1:44 PM 26.6 °F 14.3 °F 21.2 °F 80% 29.65 in 0.2 mi North 16.1 mph - 0.04 in Snow Heavy Snow
1:52 PM 26.1 °F 13.6 °F 21.9 °F 84% 29.65 in 0.2 mi North 16.1 mph - 0.05 in Snow Heavy Snow
2:06 PM 24.8 °F 12.4 °F 21.2 °F 86% 29.65 in 0.2 mi North 15.0 mph - 0.01 in Snow Heavy Snow
2:33 PM 26.6 °F 15.2 °F 21.2 °F 80% 29.65 in 0.2 mi North 13.8 mph - 0.02 in Snow Heavy Snow
2:52 PM 26.1 °F 13.6 °F 21.9 °F 84% 29.65 in 0.2 mi NNW 16.1 mph - 0.02 in Snow Heavy Snow
3:39 PM 24.8 °F 11.5 °F 21.2 °F 86% 29.65 in 0.5 mi North 17.3 mph - 0.01 in Snow Heavy Snow
3:52 PM 26.1 °F 12.0 °F 21.0 °F 81% 29.65 in 0.5 mi North 20.7 mph 25.3 mph 0.01 in Snow Snow
4:10 PM 26.6 °F 13.8 °F 21.2 °F 80% 29.65 in 0.8 mi NNW 17.3 mph - 0.00 in Snow Light Snow
4:52 PM 25.0 °F 10.9 °F 21.0 °F 85% 29.66 in 0.8 mi NNW 19.6 mph 25.3 mph 0.01 in Snow Light Snow
5:12 PM 26.6 °F 14.7 °F 21.2 °F 80% 29.67 in 0.8 mi North 15.0 mph - 0.00 in Snow Light Snow
5:52 PM 27.0 °F 15.2 °F 23.0 °F 85% 29.68 in 0.5 mi NNW 15.0 mph - 0.01 in Snow Snow
6:52 PM 27.0 °F 15.6 °F 24.1 °F 89% 29.70 in 0.8 mi NNW 13.8 mph - 0.02 in Snow Light Snow
7:52 PM 28.0 °F 15.7 °F 24.1 °F 85% 29.70 in 0.8 mi NNW 17.3 mph 23.0 mph 0.01 in Snow Light Snow
8:28 PM 28.4 °F 17.5 °F 24.8 °F 86% 29.71 in 1.0 mi NNW 13.8 mph - 0.01 in Snow Light Snow
8:44 PM 28.4 °F 17.5 °F 24.8 °F 86% 29.71 in 1.2 mi NNW 13.8 mph - 0.01 in Snow Light Snow
8:52 PM 28.0 °F 17.0 °F 24.1 °F 85% 29.71 in 1.8 mi NNW 13.8 mph - 0.01 in Snow Light Snow
8:58 PM 28.4 °F 17.0 °F 24.8 °F 86% 29.71 in 2.0 mi NNW 15.0 mph - 0.00 in Snow Light Snow
9:30 PM 28.4 °F 17.0 °F 24.8 °F 86% 29.71 in 2.5 mi NNW 15.0 mph - 0.00 in Snow Light Snow
9:46 PM 28.4 °F 16.6 °F 23.0 °F 80% 29.71 in 3.0 mi NNW 16.1 mph - 0.00 in Snow Light Snow
9:52 PM 28.0 °F 16.1 °F 23.0 °F 81% 29.71 in 3.0 mi NNW 16.1 mph - 0.00 in Snow Light Snow
10:25 PM 28.4 °F 16.6 °F 23.0 °F 80% 29.72 in 2.5 mi NNW 16.1 mph - 0.00 in Snow Light Snow
10:37 PM 28.4 °F 17.5 °F 23.0 °F 80% 29.73 in 3.0 mi NNW 13.8 mph - 0.00 in Snow Light Snow
10:52 PM 28.0 °F 17.5 °F 21.9 °F 78% 29.73 in 4.0 mi NNW 12.7 mph - 0.01 in Snow Light Snow
11:52 PM 28.4 °F 18.5 °F 21.2 °F 74% 29.74 in 10.0 mi NNW 11.5 mph - N/A Snow Light Snow